Showing default

YAOGAN-35 05C, 53763

Orbit data source: Space-Track

YAOGAN-35 05C, 53763 is a payload satellite owned by PLA GAD (CN) in LEO that was launched on Tue, 06 Sep 2022 UTC via a CHANG ZHENG 2D launch vehicle from the Xichang Space Center, China (XSC). Payload-class satellites include a variety of spacecraft equipped with specific instruments for various scientific and technological missions. These include communications satellites like Starlink; space stations such as the ISS; scientific satellites like the Hubble; Earth observation satellites from companies like Planet Labs, Umbra, and HawkEye 360; GPS; miniature CubeSats for education and research; and military/defense satellites.

Loading next visibility...
Identifier
53763, 2022-109D
Orbit
LEO
Country
Flag of CNCN / PRC
Related business
Manufacturer
DFH
Mission
Operational Defense Sigint
Bus & Motor
Unknown
Mass
~300 kg wet, ~300 kg dry
Launch date (UTC)
2022-09-06 (4 years ago)
Launch vehicle
CHANG ZHENG 2D
Launch site
Xichang Space Center, China (XSC)
Object type
Payload
Rocket body
Debris
Shape & HBR
Box + 2 Pan, 2.5 m
Radar Cross Section
11.063 m², Large (>1 m²)

Expand to show TLE details & history
Last TLE update: 21 hours ago

TLE from 21 hours ago
0 YAOGAN-35 05C
1 53763U 22109D   26172.55900148  .00006837  00000-0  28022-3 0  9999
2 53763  34.9928 329.4757 0003480 306.0801  53.9591 15.23577565211047
Epoch: 2026-06-21T13:24Z
TLE epoch observation values (Epoch: 2026-06-21T13:24:57.727Z)
Latitude
-0.00004°
Longitude
-141.52243°
Altitude
492.56 km
Speed
7.622 km/s
True Right ascension
21h 57m 54s
True Declination
0° 00' 00"
Sunlit
Object was in full shadow at epoch
Visualization orbit readout
Latitude
Unknown
Longitude
Unknown
Altitude
Unknown
Speed
Unknown
Apparent Right ascension
Unknown
Apparent Declination
Unknown
Sunlit
N/A
Visualization observer readout
Local Sidereal Time
21:36:40
Azimuth
Unknown
Elevation
Unknown
Doppler factor
Unknown
Orbital elements
Apogee altitude
500.705 km
Perigee altitude
495.919 km
Semi-major axis
6,876.449 km
Eccentricity
0.00035
Inclination
34.9928°
RAAN
329.4757°
Arg. of periapsis
306.0801°
True anomaly
53.99135°
Mean anomaly
53.9591°
Eccentric anomaly
53.97523°
Mean motion
3.80625 °/min
Orbital period
94.58 mins
BSTAR
0.00028022
Loading maneuver chart data...
Computing Atmospheric mass density...
Loading historical data...
Loading historical data...
Loading historical data...
Loading historical data...
Loading historical data...
Loading historical data...
Loading historical data...
Other satellites on launch #109 in the year 2022 (2022-09-06 UTC)

Documentation

Showing up to 5 results
|